Meteo pe oră la Allande

Astăzi, 26 Ianuarie, Marţi

Timp Temperatura Precipitaţii Vânt Presiune Umiditate
00:00 +6°C° 0 mm 1 m/s 676 mmHg 96%
01:00 +7°C° 0 mm 1 m/s 677 mmHg 96%
02:00 +7°C° 0 mm 1 m/s 677 mmHg 96%
03:00 +7°C° 0 mm 1 m/s 677 mmHg 96%
04:00 +8°C° 0.4 mm 1 m/s 677 mmHg 96%
05:00 +7°C° 0.4 mm 2 m/s 677 mmHg 97%
06:00 +7°C° 0.4 mm 2 m/s 677 mmHg 97%
07:00 +7°C° 0.1 mm 2 m/s 677 mmHg 97%
08:00 +8°C° 0.1 mm 2 m/s 678 mmHg 97%
09:00 +8°C° 0.1 mm 2 m/s 678 mmHg 97%
10:00 +9°C° 0.2 mm 2 m/s 678 mmHg 96%
11:00 +9°C° 0.2 mm 2 m/s 679 mmHg 96%
12:00 +11°C° 0.2 mm 1 m/s 679 mmHg 95%
13:00 +11°C° 0.3 mm 1 m/s 679 mmHg 95%
14:00 +11°C° 0.3 mm 1 m/s 679 mmHg 95%
15:00 +11°C° 0.3 mm 1 m/s 678 mmHg 95%
16:00 +11°C° 0.2 mm 1 m/s 679 mmHg 96%
17:00 +10°C° 0.2 mm 1 m/s 679 mmHg 97%
18:00 +10°C° 0.2 mm 1 m/s 679 mmHg 98%
19:00 +10°C° 0.9 mm 1 m/s 680 mmHg 98%
20:00 +10°C° 0.9 mm 1 m/s 680 mmHg 98%
21:00 +10°C° 0.9 mm 1 m/s 680 mmHg 98%
22:00 +10°C° 1.5 mm 1 m/s 680 mmHg 98%
23:00 +10°C° 1.5 mm 1 m/s 681 mmHg 98%

Mâine, 27 Ianuarie, Miercuri

Timp Temperatura Precipitaţii Vânt Presiune Umiditate
00:00 +10°C° 1.5 mm 1 m/s 681 mmHg 98%
01:00 +10°C° 0.2 mm 1 m/s 681 mmHg 98%
02:00 +10°C° 0.2 mm 1 m/s 681 mmHg 98%
03:00 +9°C° 0.2 mm 1 m/s 680 mmHg 98%
04:00 +9°C° 0 mm 1 m/s 681 mmHg 98%
05:00 +8°C° 0 mm 2 m/s 681 mmHg 97%
06:00 +8°C° 0 mm 2 m/s 681 mmHg 97%
07:00 +8°C° 0 mm 2 m/s 681 mmHg 97%
08:00 +8°C° 0 mm 2 m/s 681 mmHg 96%
09:00 +8°C° 0 mm 2 m/s 682 mmHg 96%
10:00 +9°C° 0 mm 2 m/s 682 mmHg 92%
11:00 +10°C° 0 mm 2 m/s 682 mmHg 88%
12:00 +12°C° 0 mm 2 m/s 683 mmHg 84%
13:00 +13°C° 0 mm 2 m/s 682 mmHg 83%
14:00 +13°C° 0 mm 2 m/s 682 mmHg 82%
15:00 +13°C° 0 mm 2 m/s 681 mmHg 80%
16:00 +12°C° 0 mm 2 m/s 681 mmHg 84%
17:00 +10°C° 0 mm 2 m/s 681 mmHg 88%
18:00 +8°C° 0 mm 2 m/s 681 mmHg 92%
19:00 +8°C° 0 mm 2 m/s 681 mmHg 92%
20:00 +8°C° 0 mm 2 m/s 681 mmHg 91%
21:00 +7°C° 0 mm 2 m/s 681 mmHg 91%
22:00 +7°C° 0 mm 2 m/s 681 mmHg 91%
23:00 +7°C° 0 mm 2 m/s 681 mmHg 90%

Poimâine, 28 Ianuarie, Joi

Timp Temperatura Precipitaţii Vânt Presiune Umiditate
00:00 +7°C° 0 mm 3 m/s 680 mmHg 90%
01:00 +7°C° 0 mm 3 m/s 680 mmHg 89%
02:00 +7°C° 0 mm 3 m/s 680 mmHg 89%
03:00 +7°C° 0 mm 3 m/s 680 mmHg 89%
04:00 +7°C° 0 mm 3 m/s 680 mmHg 89%
05:00 +8°C° 0 mm 3 m/s 679 mmHg 88%
06:00 +8°C° 0 mm 3 m/s 679 mmHg 88%
07:00 +8°C° 0 mm 3 m/s 680 mmHg 88%
08:00 +9°C° 0 mm 3 m/s 680 mmHg 87%
09:00 +9°C° 0 mm 3 m/s 680 mmHg 87%
10:00 +10°C° 0 mm 4 m/s 680 mmHg 83%
11:00 +11°C° 0 mm 4 m/s 680 mmHg 78%
12:00 +12°C° 0 mm 4 m/s 681 mmHg 74%
13:00 +12°C° 0 mm 4 m/s 680 mmHg 75%
14:00 +12°C° 0 mm 4 m/s 680 mmHg 75%
15:00 +12°C° 0 mm 4 m/s 679 mmHg 76%
16:00 +11°C° 0 mm 4 m/s 679 mmHg 80%
17:00 +10°C° 0 mm 3 m/s 679 mmHg 84%
18:00 +9°C° 0 mm 3 m/s 679 mmHg 87%
19:00 +8°C° 0 mm 3 m/s 679 mmHg 88%
20:00 +8°C° 0 mm 3 m/s 679 mmHg 88%
21:00 +8°C° 0 mm 3 m/s 679 mmHg 88%
22:00 +8°C° 0 mm 3 m/s 679 mmHg 89%
23:00 +7°C° 0 mm 3 m/s 678 mmHg 89%

29 Ianuarie, Vineri

Timp Temperatura Precipitaţii Vânt Presiune Umiditate
00:00 +7°C° 0 mm 3 m/s 678 mmHg 90%
01:00 +7°C° 0 mm 3 m/s 678 mmHg 90%
02:00 +7°C° 0 mm 3 m/s 677 mmHg 90%
03:00 +7°C° 0 mm 3 m/s 677 mmHg 90%
04:00 +7°C° 0 mm 3 m/s 677 mmHg 89%
05:00 +7°C° 0 mm 3 m/s 676 mmHg 89%
06:00 +7°C° 0 mm 3 m/s 676 mmHg 88%
07:00 +8°C° 0.1 mm 3 m/s 676 mmHg 88%
08:00 +8°C° 0.1 mm 3 m/s 677 mmHg 88%
09:00 +8°C° 0.1 mm 3 m/s 677 mmHg 88%
10:00 +8°C° 0.1 mm 3 m/s 677 mmHg 87%
11:00 +9°C° 0.1 mm 3 m/s 677 mmHg 86%
12:00 +10°C° 0.1 mm 2 m/s 678 mmHg 85%
13:00 +9°C° 0 mm 2 m/s 677 mmHg 86%
14:00 +9°C° 0 mm 2 m/s 676 mmHg 87%
15:00 +9°C° 0 mm 2 m/s 676 mmHg 89%
16:00 +9°C° 0 mm 2 m/s 675 mmHg 90%
17:00 +8°C° 0 mm 2 m/s 674 mmHg 90%
18:00 +8°C° 0 mm 2 m/s 674 mmHg 91%
19:00 +7°C° 0 mm 2 m/s 673 mmHg 89%
20:00 +7°C° 0 mm 2 m/s 672 mmHg 87%
21:00 +7°C° 0 mm 2 m/s 672 mmHg 85%
22:00 +7°C° 1.7 mm 3 m/s 671 mmHg 87%
23:00 +6°C° 1.7 mm 4 m/s 670 mmHg 90%

30 Ianuarie, Sâmbătă

Timp Temperatura Precipitaţii Vânt Presiune Umiditate
00:00 +6°C° 1.7 mm 5 m/s 669 mmHg 92%
01:00 +6°C° 0.8 mm 5 m/s 669 mmHg 92%
02:00 +4°C° 0.8 mm 6 m/s 668 mmHg 92%
03:00 +4°C° 0.8 mm 7 m/s 668 mmHg 93%
04:00 +4°C° 1.4 mm 7 m/s 668 mmHg 93%
05:00 +4°C° 1.4 mm 6 m/s 669 mmHg 94%
06:00 +4°C° 1.4 mm 6 m/s 669 mmHg 94%
07:00 +4°C° 0.3 mm 6 m/s 670 mmHg 94%
08:00 +5°C° 0.3 mm 5 m/s 671 mmHg 94%
09:00 +5°C° 0.3 mm 5 m/s 672 mmHg 93%
10:00 +5°C° 0.1 mm 5 m/s 673 mmHg 92%
11:00 +5°C° 0.1 mm 4 m/s 674 mmHg 91%
12:00 +5°C° 0.1 mm 4 m/s 674 mmHg 89%
13:00 +5°C° 0.1 mm 4 m/s 675 mmHg 87%
14:00 +5°C° 0.1 mm 4 m/s 675 mmHg 84%
15:00 +5°C° 0.1 mm 3 m/s 675 mmHg 82%
16:00 +4°C° 0 mm 3 m/s 676 mmHg 84%
17:00 +3°C° 0 mm 3 m/s 676 mmHg 87%
18:00 +4°C° 0 mm 2 m/s 676 mmHg 89%
19:00 +3°C° 0 mm 2 m/s 676 mmHg 87%
20:00 +2°C° 0 mm 3 m/s 677 mmHg 85%
21:00 +2°C° 0 mm 3 m/s 677 mmHg 83%
22:00 +2°C° 0 mm 3 m/s 677 mmHg 80%
23:00 +3°C° 0 mm 3 m/s 677 mmHg 76%

31 Ianuarie, Duminică

Timp Temperatura Precipitaţii Vânt Presiune Umiditate
00:00 +3°C° 0 mm 3 m/s 677 mmHg 73%
01:00 +3°C° 0 mm 4 m/s 676 mmHg 71%
02:00 +3°C° 0 mm 4 m/s 676 mmHg 69%
03:00 +4°C° 0 mm 4 m/s 675 mmHg 67%
04:00 +4°C° 0 mm 4 m/s 675 mmHg 72%
05:00 +5°C° 0 mm 5 m/s 675 mmHg 76%
06:00 +6°C° 0 mm 5 m/s 674 mmHg 81%
07:00 +6°C° 0 mm 5 m/s 674 mmHg 83%
08:00 +7°C° 0 mm 6 m/s 674 mmHg 85%
09:00 +7°C° 0 mm 6 m/s 674 mmHg 86%
10:00 +8°C° 0 mm 6 m/s 675 mmHg 83%
11:00 +8°C° 0 mm 7 m/s 675 mmHg 81%
12:00 +8°C° 0 mm 7 m/s 675 mmHg 78%
13:00 +8°C° 0 mm 7 m/s 675 mmHg 77%
14:00 +6°C° 0 mm 7 m/s 675 mmHg 77%
15:00 +6°C° 0 mm 7 m/s 675 mmHg 76%
16:00 +5°C° 0 mm 6 m/s 675 mmHg 79%
17:00 +6°C° 0 mm 5 m/s 675 mmHg 82%
18:00 +5°C° 0 mm 4 m/s 676 mmHg 84%
19:00 +5°C° 0 mm 4 m/s 676 mmHg 85%
20:00 +4°C° 0 mm 4 m/s 676 mmHg 86%
21:00 +4°C° 0 mm 3 m/s 677 mmHg 87%
22:00 +3°C° 0 mm 3 m/s 677 mmHg 87%
23:00 +3°C° 0 mm 3 m/s 677 mmHg 87%
Arată mai mult

Formular de consimțământ

Meteoprog și furnizorii noștri de servicii pot stoca și accesa date personale, precum cookies, identificatori de dispozitiv sau alte tehnologii similare pe dispozitivul dumneavoastră și procesa astfel de date pentru a personaliza conținutul și reclamele, dar și pentru a oferi caracteristici de social media și pentru a analiza traficul.

  • Stocarea și/sau accesarea informațiilor pe dispozitivul dumneavoastră

    Cookies, identificatori de dispozitiv sau alte informații pot fi stocate sau accesate pe dispozitiv în scopurile indicate mai sus.

  • Reclame și conținut personalizat, evaluarea reclamelor și a conținutului, informații despre audiențe și dezvoltarea produselor

    Reclamele și conținutul pot fi personalizate pe baza unui profil. Pot fi adăugate date suplimentare pentru a personaliza mai bine reclamele și conținutul. Performanța reclamelor și conținutului poate fi măsurată. Pot fi obținute informații despre utilizatorii care au văzut reclamele și conținutul. Aceste date pot fi utilizate pentru a dezvolta sau îmbunătăți experiența utilizatorilor, sistemele și software-ul.

Dând clic pe ‘Sunt de acord’, permiteți utilizarea cookie-urilor menționate, a identificatorilor de dispozitiv, balizelor web sau altor tehnologii similare. Setările pot fi modificate din browser-ul dispozitivului dumneavoastră.

În anumite scopuri, interesele legitime pot prima asupra consimțământului. Puteți citi mai multe informații în acest sens în Politica privind Confidențialitatea Datelor și Cookie.